Eugene, OR

6:19 PM PST on December 09, 2019 (GMT -0800)
Mahlon Sweet

Weather History for KEUG - November, 2019

Change the Weather History Date:

Tuesday, November 19, 2019

  Actual Average Record
Temperature  
Mean Temperature 52 °F 44 °F  
Max Temperature 54 °F 51 °F 69 °F (1912)
Min Temperature 49 °F 37 °F 20 °F (2000)
Degree Days  
Heating Degree Days 13 21  
Month to date heating degree days 334 358  
Since 1 July heating degree days 930 928  
Cooling Degree Days 0 0  
Month to date cooling degree days 0 0  
Year to date cooling degree days 353 239  
Moisture  
Dew Point 46 °F    
Average Humidity 78    
Maximum Humidity 89    
Minimum Humidity 66    
Precipitation  
Precipitation 0.09 in 0.27 in 2.40 in (1996)
Month to date precipitation 0.51 4.51  
Year to date precipitation 30.25 35.06  
Sea Level Pressure  
Sea Level Pressure 29.87 in    
Wind  
Wind Speed 11 mph (WSW)    
Max Wind Speed 17 mph    
Max Gust Speed 22 mph    
Visibility 10 miles    
Events Rain    
T = Trace of Precipitation, MM = Missing Value Source: NWS Daily Summary

Daily Weather History Graph

Daily Weather History Graph

Search for Another Location

Airport or City:

Astronomy

Nov. 19, 2019 Rise Set
Actual Time 7:13 AM PST 4:42 PM PST
Civil Twilight 6:41 AM PST 5:14 PM PST
Nautical Twilight 6:06 AM PST 5:49 PM PST
Astronomical Twilight 5:32 AM PST 6:23 PM PST
Moon 11:48 PM PST (11/19) 1:25 PM PST (11/19)
Length of Visible Light 10h 32m
Length of Day
9h 29m
Waning Gibbous, 50% of the Moon is Illuminated
Nov 19
Waning Gibbous
Nov 19
Last Quarter
Nov 26
New
Dec 3
First Quarter
Dec 11
Full

Hourly Weather History & Observations

Time (PST) Temp. Windchill Dew Point Humidity Pressure Visibility Wind Dir Wind Speed Gust Speed Precip Events Conditions
12:25 AM 52.0 °F - 48.0 °F 86% 29.79 in 10.0 mi SSE 11.5 mph - 0.01 in   Overcast
12:38 AM 51.1 °F - 46.9 °F 86% 29.78 in 10.0 mi SSE 12.7 mph - 0.01 in Rain Light Rain
12:54 AM 52.0 °F - 48.0 °F 86% 29.78 in 8.0 mi SSE 12.7 mph - 0.02 in Rain Light Rain
2:54 AM 52.0 °F - 46.9 °F 83% 29.76 in 10.0 mi SSE 13.8 mph - 0.01 in Rain Light Rain
3:23 AM 52.0 °F - 48.0 °F 86% 29.76 in 10.0 mi SSE 13.8 mph - 0.00 in   Overcast
3:54 AM 51.1 °F - 48.0 °F 89% 29.75 in 10.0 mi South 15.0 mph - 0.01 in   Overcast
4:11 AM 51.1 °F - 46.9 °F 86% 29.75 in 10.0 mi SSE 15.0 mph - N/A   Overcast
4:54 AM 51.1 °F - 48.0 °F 89% 29.75 in 10.0 mi SSE 12.7 mph - N/A   Overcast
5:54 AM 51.1 °F - 48.0 °F 89% 29.75 in 10.0 mi South 13.8 mph - N/A   Overcast
6:54 AM 51.1 °F - 48.0 °F 89% 29.75 in 8.0 mi South 12.7 mph - N/A   Overcast
7:04 AM 51.1 °F - 48.0 °F 89% 29.75 in 10.0 mi South 9.2 mph - N/A   Overcast
7:54 AM 51.1 °F - 48.0 °F 89% 29.77 in 10.0 mi SSW 10.4 mph - N/A   Mostly Cloudy
8:54 AM 53.1 °F - 50.0 °F 89% 29.80 in 10.0 mi WSW 8.1 mph - N/A   Mostly Cloudy
9:39 AM 54.0 °F - 48.9 °F 83% 29.83 in 10.0 mi WNW 10.4 mph - N/A   Mostly Cloudy
9:54 AM 54.0 °F - 46.9 °F 77% 29.85 in 10.0 mi WNW 13.8 mph - N/A   Mostly Cloudy
10:54 AM 53.1 °F - 45.0 °F 74% 29.87 in 10.0 mi NW 16.1 mph - N/A   Mostly Cloudy
11:54 AM 53.1 °F - 46.9 °F 80% 29.88 in 10.0 mi NW 5.8 mph - N/A   Overcast
12:54 PM 53.1 °F - 48.0 °F 83% 29.88 in 10.0 mi West 5.8 mph - 0.01 in   Mostly Cloudy
1:54 PM 54.0 °F - 46.9 °F 77% 29.88 in 10.0 mi WNW 6.9 mph - 0.00 in   Mostly Cloudy
2:54 PM 53.1 °F - 43.0 °F 69% 29.90 in 10.0 mi NW 13.8 mph - N/A   Mostly Cloudy
3:54 PM 53.1 °F - 43.0 °F 69% 29.92 in 10.0 mi NW 9.2 mph - N/A   Mostly Cloudy
4:54 PM 50.0 °F - 43.0 °F 77% 29.94 in 10.0 mi NW 5.8 mph - N/A   Mostly Cloudy
5:54 PM 50.0 °F - 43.0 °F 77% 29.96 in 10.0 mi NW 5.8 mph - N/A   Mostly Cloudy
6:54 PM 48.9 °F - 43.0 °F 80% 29.97 in 10.0 mi Calm Calm - N/A   Overcast
7:54 PM 46.0 °F 43.9 °F 41.0 °F 83% 29.98 in 10.0 mi NNE 4.6 mph - N/A   Scattered Clouds
8:54 PM 45.0 °F - 41.0 °F 86% 29.99 in 10.0 mi Calm Calm - N/A   Mostly Cloudy
9:54 PM 46.0 °F 43.1 °F 42.1 °F 86% 30.01 in 10.0 mi NNW 5.8 mph - N/A   Overcast
10:50 PM 46.4 °F 45.2 °F 42.8 °F 87% 30.02 in 10.0 mi North 3.5 mph - N/A   Overcast
10:54 PM 46.0 °F 44.8 °F 43.0 °F 89% 30.03 in 7.0 mi North 3.5 mph - N/A   Overcast
11:54 PM 46.9 °F - 43.0 °F 86% 30.04 in 10.0 mi North 6.9 mph - 0.00 in   Overcast